Regional Weather Roundup
Issued by NWS State College, PA

Home | Current Version | Previous Version | Text Only | Print | Product List | Glossary Off
Versions: 1 2 3 4 5 6 7 8 9 10 11 12 13 14 15 16 17 18 19 20 21 22 23 24 25 26 27 28 29 30 31 32 33 34 35 36 37 38 39 40 41 42 43 44 45 46 47 48 49 50

191
ASUS41 KCTP 181710
RWRCTP

REGIONAL WEATHER ROUNDUP
NATIONAL WEATHER SERVICE STATE COLLEGE PA
1200 PM EST SAT NOV 18 2017

Note: "fair" indicates few or no clouds below 12,000 feet with no
significant weather and/or obstructions to visibility.

* = STATION THAT DOES NOT REPORT PRECIPITATION /E.G. RAIN...SNOW...ETC/
    THUNDER OR FOG.

PAZ002>004-007>009-013>016-020>023-029>032-181800-
WESTERN PENNSYLVANIA

CITY           SKY/WX    TMP DP  RH WIND       PRES   REMARKS
ERIE           CLOUDY    47  42  83 S16G23    29.49F
MEADVILLE      CLOUDY    44  43  96 S8        29.52S
FRANKLIN*      CLOUDY    44  42  93 S10       29.54S
NEW CASTLE     RAIN      45  45 100 VRB3      29.54F
BEAVER COUNTY  LGT RAIN  43  43 100 S7        29.55F
BUTLER*        LGT RAIN  44  43  96 S9        29.55F
PITTSBURGH INT LGT RAIN  45  44  97 S9        29.54F
PITTSBURGH     LGT RAIN  45  42  89 S9        29.56F FOG
INDIANA*       CLOUDY    46  46 100 S9        29.63F
LATROBE        LGT RAIN  46  46 100 S7        29.61F
WASHINGTON CO* LGT RAIN  47  45  93 SE5       29.58F
$$

PAZ004>006-010>012-017>019-024>028-033>037-041-042-045-046-049>053-181800-
CENTRAL PENNSYLVANIA

CITY           SKY/WX    TMP DP  RH WIND       PRES   REMARKS
BRADFORD       CLOUDY    42  41  96 S9        29.53F
DUBOIS         LGT RAIN  43  40  89 S12G18    29.55F FOG
CLEARFIELD     CLOUDY    37  36  96 CALM      29.61F FOG
JOHNSTOWN      LGT RAIN  41  40  96 S13       29.60F FOG
ALTOONA        LGT RAIN  38  36  92 W5        29.68F FOG
STATE COLLEGE  LGT RAIN  37  37 100 SW6       29.67F
WILLIAMSPORT   CLOUDY    40  34  79 E6        29.69F
SELINSGROVE    CLOUDY    38  37  97 SW7       29.73F
FT INDIANTOWN  LGT RAIN  38  38 100 CALM      29.76F FOG
CAPITAL CITY   RAIN      40  37  89 CALM      29.77F FOG
HARRISBURG     LGT RAIN  41  39  93 CALM      29.76F FOG
YORK           RAIN      40  40 100 CALM      29.75F FOG
$$

PAZ038>040-043-044-047-048-054-055-060>062-067>071-181800-
EASTERN PENNSYLVANIA

CITY           SKY/WX    TMP DP  RH WIND       PRES   REMARKS
SCRANTON       LGT RAIN  39  35  86 S9        29.71F FOG
MOUNT POCONO   LGT RAIN  35  33  92 SW12G18   29.71F
ALLENTOWN      LGT RAIN  44  36  73 SW8       29.78F
QUAKERTOWN*    CLOUDY    45  37  76 S8        29.79F
READING        RAIN      42  42 100 E3        29.76F FOG
LANCASTER      RAIN      43  41  93 E5        29.76F FOG
COATESVILLE    MIX PCPN  43  39  87 S7        29.80F
POTTSTOWN      LGT RAIN  46  36  68 S7        29.81F
BLUE BELL      CLOUDY    46  36  66 S13       29.82F
DOYLESTOWN     CLOUDY    48  35  60 S8        29.79F
WILLOW GROVE   NOT AVBL
NORTH PHILA    CLOUDY    52  37  56 VRB5      29.82F
PHILADELPHIA   CLOUDY    50  36  58 S10       29.82F
$$




USA.gov is the U.S. government's official web portal to all federal, state and local government web resources and services.